FW9285 Weather Reports


Display with metric or nautical units.
time (UTC)temp
F
wind
direction
speed
MPH
gust
MPH
rain 1hr
in
rain 24hr
in
rain mn
in
humidity
%
barometer
mb
20260506202407 80 213 0.0 9.0 0.00 0.00 0.00 24 1014.2
20260506201411 81 323 5.0 8.0 0.00 0.00 0.00 24 1014.1
20260506200408 80 313 6.0 7.0 0.00 0.00 0.00 25 1014.1
20260506194407 79 323 4.0 10.0 0.00 0.00 0.00 26 1014.3
20260506193407 80 350 3.0 9.0 0.00 0.00 0.00 25 1014.3
20260506192407 81 280 2.0 4.0 0.00 0.00 0.00 25 1014.6
20260506191407 79 138 1.0 8.0 0.00 0.00 0.00 27 1014.9
20260506190406 78 254 3.0 8.0 0.00 0.00 0.00 28 1015.0
20260506184405 76 318 5.0 9.0 0.00 0.00 0.00 28 1015.4
20260506183404 77 354 2.0 7.0 0.00 0.00 0.00 28 1015.2
20260506182405 78 351 3.0 6.0 0.00 0.00 0.00 28 1015.5
20260506181405 76 213 4.0 6.0 0.00 0.00 0.00 29 1015.4
20260506180403 76 194 2.0 7.0 0.00 0.00 0.00 28 1015.2
20260506175405 76 332 2.0 4.0 0.00 0.00 0.00 30 1015.5
20260506174404 74 284 2.0 7.0 0.00 0.00 0.00 31 1015.5
20260506173404 74 306 2.0 9.0 0.00 0.00 0.00 32 1015.6
20260506172405 74 276 2.0 6.0 0.00 0.00 0.00 32 1015.7
20260506170403 73 281 2.0 7.0 0.00 0.00 0.00 32 1015.6
20260506165404 73 323 4.0 6.0 0.00 0.00 0.00 32 1015.5
20260506164405 74 236 2.0 5.0 0.00 0.00 0.00 33 1015.6
20260506163402 73 331 2.0 6.0 0.00 0.00 0.00 34 1015.6
20260506162402 72 334 3.0 5.0 0.00 0.00 0.00 34 1015.9
20260506161404 71 289 2.0 4.0 0.00 0.00 0.00 36 1015.8
20260506160401 70 283 0.0 5.0 0.00 0.00 0.00 37 1016.1
20260506153401 69 271 1.0 4.0 0.00 0.00 0.00 39 1015.7
20260506151401 67 256 3.0 4.0 0.00 0.00 0.00 41 1015.7
20260506150401 66 246 4.0 5.0 0.00 0.00 0.00 42 1015.6
20260506145401 65 239 2.0 5.0 0.00 0.00 0.00 44 1015.6
20260506144400 63 261 3.0 5.0 0.00 0.00 0.00 47 1015.6
20260506143400 62 255 2.0 6.0 0.00 0.00 0.00 48 1015.7
20260506142400 61 199 1.0 3.0 0.00 0.00 0.00 49 1015.5
20260506141350 60 256 3.0 3.0 0.00 0.00 0.00 50 1015.3
20260506140351 60 217 0.0 3.0 0.00 0.00 0.00 51 1015.3
20260506135350 59 232 1.0 3.0 0.00 0.00 0.00 51 1015.2
20260506134351 57 237 2.0 4.0 0.00 0.00 0.00 52 1015.1
20260506133350 56 210 1.0 4.0 0.00 0.00 0.00 53 1014.8
20260506132350 56 224 3.0 3.0 0.00 0.00 0.00 53 1014.9
20260506131349 55 208 1.0 4.0 0.00 0.00 0.00 53 1014.9
20260506130348 56 219 1.0 3.0 0.00 0.00 0.00 52 1014.6
20260506125349 55 181 2.0 3.0 0.00 0.00 0.00 53 1014.5
20260506124350 55 203 2.0 3.0 0.00 0.00 0.00 52 1014.3
20260506123349 55 225 1.0 3.0 0.00 0.00 0.00 52 1014.1
20260506122348 56 149 2.0 3.0 0.00 0.00 0.00 51 1014.3
20260506121347 56 232 2.0 3.0 0.00 0.00 0.00 50 1014.1
20260506120348 56 259 0.0 4.0 0.00 0.00 0.00 49 1014.0
20260506115349 56 186 2.0 3.0 0.00 0.00 0.00 49 1014.1
20260506114349 56 221 2.0 3.0 0.00 0.00 0.00 50 1014.2
20260506113347 56 263 0.0 2.0 0.00 0.00 0.00 49 1014.2
20260506112347 56 252 1.0 2.0 0.00 0.00 0.00 50 1014.0
20260506111348 56 210 2.0 3.0 0.00 0.00 0.00 49 1014.1
20260506110346 57 253 1.0 2.0 0.00 0.00 0.00 48 1014.1
20260506105336 57 184 2.0 3.0 0.00 0.00 0.00 48 1013.6
20260506104337 57 210 1.0 2.0 0.00 0.00 0.00 47 1013.9
20260506103338 57 211 0.0 3.0 0.00 0.00 0.00 46 1013.4
20260506102336 57 193 0.0 2.0 0.00 0.00 0.00 47 1013.8
20260506101336 57 229 1.0 2.0 0.00 0.01 0.00 47 1013.6
20260506095338 57 236 0.0 1.0 0.00 0.01 0.00 46 1013.3
20260506094338 57 256 0.0 2.0 0.00 0.01 0.00 46 1013.3
20260506093337 58 246 0.0 2.0 0.00 0.01 0.00 45 1013.4
20260506091336 58 275 1.0 2.0 0.00 0.01 0.00 45 1013.2
20260506090335 58 224 2.0 2.0 0.00 0.01 0.00 45 1013.2
20260506085338 58 129 0.0 2.0 0.00 0.01 0.00 45 1013.1
20260506084336 58 220 2.0 2.0 0.00 0.01 0.00 45 1013.0
20260506082337 59 229 1.0 3.0 0.00 0.01 0.00 44 1013.0
20260506070336 62 242 1.0 2.0 0.00 0.01 0.00 40 1013.0
20260506062336 63 248 3.0 3.0 0.00 0.01 0.01 39 1012.7
20260506061334 63 269 1.0 2.0 0.00 0.01 0.01 39 1012.6
20260506060334 64 271 2.0 3.0 0.00 0.01 0.01 38 1012.8
20260506051331 66 262 1.0 4.0 0.00 0.02 0.01 35 1012.3
20260506050331 67 271 2.0 4.0 0.00 0.02 0.01 34 1012.6
20260506043331 68 275 2.0 4.0 0.00 0.02 0.01 33 1012.1
20260506042331 68 256 2.0 4.0 0.00 0.02 0.01 34 1011.7
20260506041331 68 262 2.0 4.0 0.00 0.02 0.01 33 1011.8
20260506040330 68 263 2.0 5.0 0.00 0.02 0.01 33 1011.7
20260506035330 69 255 2.0 4.0 0.00 0.02 0.01 33 1011.5
20260506033331 70 300 1.0 6.0 0.00 0.02 0.01 31 1011.1
20260506032330 70 260 2.0 6.0 0.00 0.02 0.01 31 1010.7
20260506031331 71 262 6.0 7.0 0.00 0.02 0.01 31 1010.7
20260506030331 71 316 4.0 9.0 0.00 0.02 0.01 31 1010.6
20260506025332 71 263 3.0 9.0 0.00 0.02 0.01 31 1010.4
20260506024333 71 293 4.0 8.0 0.00 0.02 0.01 31 1010.4
20260506023331 72 258 6.0 10.0 0.00 0.02 0.01 30 1010.0
20260506022330 72 281 6.0 13.0 0.00 0.02 0.01 30 1010.1
20260506021334 72 266 9.0 13.0 0.00 0.02 0.01 30 1010.0
20260506015334 73 283 4.0 11.0 0.00 0.02 0.01 30 1009.6
20260506013332 74 316 5.0 12.0 0.00 0.02 0.01 30 1009.3
20260506012332 74 309 4.0 11.0 0.00 0.02 0.01 30 1009.6
20260506011332 74 286 3.0 21.0 0.00 0.02 0.01 30 1009.4
20260506010330 75 278 8.0 11.0 0.00 0.02 0.01 30 1009.2
20260506005331 76 302 3.0 10.0 0.00 0.02 0.01 30 1009.0
20260506004334 76 326 6.0 17.0 0.00 0.02 0.01 30 1008.9
20260506002330 74 328 5.0 16.0 0.00 0.02 0.01 30 1009.0
20260506001333 75 271 5.0 17.0 0.00 0.02 0.01 31 1008.9
20260506000330 76 298 6.0 14.0 0.00 0.02 0.01 30 1008.8
20260505235331 76 269 4.0 15.0 0.00 0.02 0.01 30 1008.8
20260505234329 76 333 5.0 18.0 0.00 0.02 0.01 31 1008.8
20260505232329 78 314 7.0 14.0 0.00 0.02 0.01 30 1008.7
20260505231329 78 310 5.0 12.0 0.00 0.02 0.01 30 1008.8
20260505225328 77 338 6.0 15.0 0.00 0.02 0.01 30 1008.6
20260505224328 77 315 7.0 16.0 0.00 0.02 0.01 30 1008.6
20260505223329 76 300 4.0 18.0 0.00 0.02 0.01 31 1009.0
20260505222329 79 304 5.0 16.0 0.00 0.02 0.01 30 1008.7
20260505221326 79 321 4.0 15.0 0.00 0.02 0.01 31 1009.0
20260505220326 80 257 3.0 18.0 0.00 0.02 0.01 31 1009.3
20260505215327 80 272 1.0 14.0 0.00 0.02 0.01 31 1009.3
20260505214326 79 251 4.0 11.0 0.00 0.02 0.01 32 1009.0
20260505213330 78 280 3.0 16.0 0.00 0.02 0.01 34 1009.3
20260505212325 79 292 4.0 13.0 0.00 0.02 0.01 34 1009.3
20260505211326 77 303 3.0 11.0 0.00 0.02 0.01 36 1009.6
20260505210326 76 308 3.0 14.0 0.00 0.02 0.01 37 1009.6
20260505205326 79 289 6.0 13.0 0.00 0.02 0.01 35 1009.6
20260505204326 78 157 4.0 12.0 0.00 0.02 0.01 32 1009.7